Regional Weather Roundup
Issued by NWS

Home | Current Version | Previous Version | Graphics & Text | Print | Product List | Glossary Off
Versions: 1 2 3 4 5 6 7 8 9 10 11 12 13 14 15 16 17 18 19 20 21 22 23 24 25 26 27 28 29 30 31 32 33 34 35 36 37 38 39 40 41 42 43 44 45 46 47 48 49 50

000
ASUS43 KTOP 181908
RWRKS

WEATHER ROUNDUP FOR KANSAS
NATIONAL WEATHER SERVICE GOODLAND KS
100 PM CST SAT FEB 18 2017

NOTE:  "FAIR" INDICATES FEW OR NO CLOUDS BELOW 12,000 FEET WITH NO
SIGNIFICANT WEATHER AND/OR OBSTRUCTIONS TO VISIBILITY.

KSZ001>006-013>018-027>032-041>047-182000-
NORTHWEST KANSAS

CITY           SKY/WX    TMP DP  RH WIND       PRES   REMARKS
GOODLAND       PTSUNNY   59  32  36 SE13      29.77F
HAYS           SUNNY     61  38  42 SE9       29.77F
HILL CITY      SUNNY     61  39  44 SE12      29.78F
RUSSELL        SUNNY     64  41  42 SE8       29.76F
$$

KSZ061>065-074>080-084>089-182000-
SOUTHWEST KANSAS

CITY           SKY/WX    TMP DP  RH WIND       PRES   REMARKS
DODGE CITY     SUNNY     71  33  24 S12       29.77F
ELKHART          N/A     64  30  27 S7          N/A
GARDEN CITY    SUNNY     67  29  24 S8        29.77F
GREAT BEND     SUNNY     67  39  35 SE8       29.77F
LIBERAL        SUNNY     68  34  28 E6        29.79F
PRATT          SUNNY     65  40  39 S7        29.78F
$$

KSZ066>073-081>083-090>101-182000-
SOUTHEAST KANSAS

CITY           SKY/WX    TMP DP  RH WIND       PRES   REMARKS
CHANUTE        SUNNY     68  49  50 S9        29.82F
COFFEYVILLE    SUNNY     63  52  67 S9        29.84F
HUTCHINSON     SUNNY     69  45  41 S9        29.78F
MEDICINE LODGE   N/A     66  44  45 S8        29.78F
NEWTON         SUNNY     70  45  40 S9        29.79F
PARSONS        SUNNY     65  51  60 S8        29.84F
WICHITA INTL   MOSUNNY   70  48  45 S9        29.79F
WICHITA JABRA  SUNNY     70  46  42 SE8       29.79F
WICHITA MCCONL SUNNY     69  46  42 SW5       29.79F
WINFIELD       SUNNY     69  49  48 SE5       29.81F
$$

KSZ007>012-019>026-033>040-048>060-102>105-182000-
NORTHEAST KANSAS

CITY           SKY/WX    TMP DP  RH WIND       PRES   REMARKS
CONCORDIA      SUNNY     66  40  38 E9        29.78F
EMPORIA        SUNNY     70  43  37 SE8       29.78F
LAWRENCE       SUNNY     65  44  46 VRB3      29.79F
MANHATTAN      SUNNY     67  44  43 NE5       29.78F
MARYSVILLE     SUNNY     64  37  36 E7        29.79F
OLATHE IND     SUNNY     65  46  50 S7        29.80F
OLATHE EXE     SUNNY     64  46  52 VRB7      29.80F
SALINA         SUNNY     72  45  37 S9        29.77F
TOPEKA BILLARD SUNNY     66  42  41 CALM      29.79F
TOPEKA FORBES  SUNNY     68  44  42 VRB3      29.79F
$$




USA.gov is the U.S. government's official web portal to all federal, state and local government web resources and services.